Date,TemperatureHighF,TemperatureAvgF,TemperatureLowF,DewpointHighF,DewpointAvgF,DewpointLowF,HumidityHigh,HumidityAvg,HumidityLow,PressureMaxIn,PressureMinIn,WindSpeedMaxMPH,WindSpeedAvgMPH,GustSpeedMaxMPH,PrecipitationSumIn
2014-1-1,48.5,38.5,30.3,35.0,27.6,23.0,92,67,44,31.44,28.89,9,2,0,0.00
2014-1-2,41.1,27.5,15.0,34.0,24.6,12.0,96,89,62,30.01,30.01,17,4,0,0.76
2014-1-3,20.6,13.2,5.3,17.0,7.9,0.0,92,79,66,30.01,30.01,12,3,0,0.00
2014-1-4,40.5,29.2,16.0,25.0,18.9,12.0,93,68,46,30.01,20.45,15,5,0,0.00
2014-1-5,49.7,39.1,25.7,44.0,33.6,22.0,96,81,55,0.00,0.00,33,7,0,1.31
2014-1-6,25.4,2.0,-5.8,22.0,-4.7,-13.0,85,73,63,0.00,0.00,29,12,0,0.00
2014-1-7,13.4,4.9,-5.2,7.0,-3.2,-12.0,77,70,57,0.00,0.00,14,4,0,0.00
2014-1-8,31.6,21.4,11.6,24.0,14.1,5.0,90,74,60,0.00,0.00,9,3,0,0.00
2014-1-9,41.7,32.8,27.7,36.0,29.1,23.0,95,87,57,31.54,0.00,11,2,0,0.11
2014-1-10,52.8,43.5,35.1,50.0,41.7,33.0,96,93,87,31.43,0.00,17,6,0,0.00
2014-1-11,53.3,46.9,37.3,51.0,42.7,31.0,96,85,70,32.25,20.30,17,5,0,1.08
2014-1-12,47.2,40.2,35.3,35.0,32.6,30.0,88,75,62,32.30,20.30,14,4,0,0.00
2014-1-13,54.0,48.8,45.5,48.0,40.0,32.0,94,73,54,31.49,28.89,17,5,0,0.38
2014-1-14,49.1,41.4,33.3,43.0,33.0,22.0,90,74,45,31.48,28.89,23,6,0,0.08
2014-1-15,32.9,28.2,23.8,22.0,19.7,16.0,82,71,58,31.98,28.70,23,5,0,0.00
2014-1-16,33.2,27.0,20.7,30.0,22.8,14.0,94,84,71,30.02,30.02,14,5,0,0.00
2014-1-17,33.5,24.5,14.4,32.0,19.8,7.0,95,82,64,0.00,0.00,26,6,0,0.00
2014-1-18,29.6,22.1,14.6,28.0,17.4,9.0,95,82,65,0.00,0.00,9,3,0,0.00
2014-1-19,37.2,31.3,24.3,30.0,24.6,20.0,94,77,62,0.00,0.00,21,6,0,0.00
2014-1-20,43.8,39.7,36.7,37.0,29.5,26.0,92,68,58,31.43,0.00,12,5,0,0.01
2014-1-21,39.2,21.3,8.9,38.0,19.3,5.0,96,92,84,31.99,28.71,22,4,0,0.65
2014-1-22,17.8,9.9,3.9,15.0,4.6,-2.0,89,79,67,31.35,27.42,9,2,0,0.00
2014-1-23,17.9,7.5,2.5,15.0,-0.6,-6.0,88,70,60,30.04,30.04,27,10,0,0.00
2014-1-24,22.6,10.7,0.4,8.0,1.4,-4.0,84,68,46,31.48,30.04,16,4,0,0.00
2014-1-25,35.6,23.7,14.5,27.0,15.4,3.0,91,72,45,30.20,30.20,33,11,0,0.00
2014-1-26,45.8,30.0,13.2,32.0,17.4,1.0,85,61,46,30.20,30.20,13,4,0,0.00
2014-1-27,44.1,14.7,4.6,33.0,1.8,-5.0,86,57,40,30.20,30.20,29,11,0,0.00
2014-1-28,10.2,3.8,-4.4,3.0,-7.5,-13.0,88,61,40,30.20,30.20,10,2,0,0.00
2014-1-29,23.9,14.0,4.3,12.0,1.3,-6.0,72,58,42,31.35,30.04,9,2,0,0.00
2014-1-30,36.0,25.0,12.6,21.0,9.3,4.0,83,54,31,32.31,23.38,12,5,0,0.00
2014-1-31,38.1,36.0,35.5,16.0,10.5,8.0,43,35,31,23.41,22.13,9,2,0,0.00
2014-2-1,60.0,56.8,51.0,46.0,38.1,30.0,83,51,38,32.34,22.80,9,2,0,0.00
2014-2-2,50.9,37.1,30.8,47.0,35.0,28.0,95,92,85,32.50,22.80,12,5,0,0.42
2014-2-3,37.6,30.9,26.5,33.0,25.8,19.0,95,82,52,32.32,22.79,10,4,0,0.01
2014-2-4,36.8,30.2,23.8,35.0,27.5,19.0,97,89,77,31.48,23.36,13,4,0,0.00
2014-2-5,35.9,28.2,24.5,35.0,26.2,21.0,97,92,85,31.46,0.00,21,6,0,0.21
2014-2-6,27.2,21.2,12.8,23.0,16.0,5.0,92,80,72,32.21,20.30,14,4,0,0.00
2014-2-7,23.3,13.8,3.8,16.0,4.5,-3.0,87,67,48,28.14,22.45,9,2,0,0.00
2014-2-8,27.8,22.3,16.0,26.0,17.2,5.0,91,81,63,32.37,0.00,6,2,0,0.00
2014-2-9,29.7,27.0,21.6,27.0,21.5,12.0,93,80,62,32.34,21.96,24,6,0,0.00
2014-2-10,24.3,17.2,11.1,22.0,10.4,6.0,92,75,52,32.16,0.00,11,3,0,0.00
2014-2-11,26.3,15.8,6.5,24.0,11.9,3.0,94,85,58,31.80,22.82,7,2,0,0.00
2014-2-12,38.8,24.1,10.4,36.0,19.8,8.0,95,85,49,32.47,22.74,7,2,0,0.01
2014-2-13,45.0,33.2,19.2,25.0,17.2,12.0,90,55,31,30.33,22.65,6,2,0,0.19
2014-2-14,38.5,32.3,24.3,37.0,25.6,19.0,95,77,52,31.44,22.10,14,4,0,0.11
2014-2-15,30.2,24.0,18.1,24.0,18.2,15.0,94,79,61,31.45,23.36,13,4,0,0.00
2014-2-16,32.8,28.1,23.6,31.0,24.2,20.0,94,85,70,32.31,22.79,16,5,0,0.00
2014-2-17,39.3,31.3,22.3,38.0,28.8,20.0,96,90,76,32.32,22.82,19,4,0,0.72
2014-2-18,54.3,45.3,36.7,34.0,31.4,27.0,85,60,36,32.31,23.35,15,5,0,0.00
2014-2-19,51.7,47.8,44.2,44.0,37.3,30.0,87,68,52,32.34,0.00,17,5,0,0.26
2014-2-20,69.1,56.0,42.4,59.0,47.2,33.0,94,73,61,32.47,22.69,27,6,0,0.57
2014-2-21,50.3,43.6,39.4,49.0,26.4,14.0,95,55,26,32.50,22.79,21,7,0,0.07
2014-2-22,60.5,49.1,41.2,40.0,25.8,18.0,76,42,27,32.34,22.80,11,4,0,0.00
2014-2-23,44.8,37.8,28.3,43.0,31.9,17.0,92,80,57,32.30,22.80,14,5,0,0.16
2014-2-24,35.4,28.9,23.2,20.0,13.5,8.0,71,54,34,32.35,22.56,16,6,0,0.00
2014-2-25,31.8,28.2,23.4,25.0,18.2,14.0,90,67,56,32.45,22.80,17,6,0,0.00
2014-2-26,26.0,20.4,11.9,19.0,6.8,1.0,80,57,37,24.14,21.07,20,7,0,0.00
2014-2-27,27.2,21.9,16.7,21.0,6.5,-11.0,85,54,23,32.35,22.96,25,8,0,0.00
2014-2-28,41.5,27.5,13.1,26.0,15.6,8.0,93,65,31,32.37,20.32,11,2,0,0.00
2014-3-1,53.0,43.9,32.0,39.0,28.5,15.0,75,55,43,32.33,22.71,7,2,0,0.00
2014-3-2,42.3,30.6,19.7,35.0,28.8,18.0,96,93,72,32.34,23.67,12,5,0,0.68
2014-3-3,24.7,19.0,13.9,22.0,16.1,11.0,95,89,77,32.31,0.00,19,6,0,0.00
2014-3-4,34.3,23.5,12.5,30.0,17.5,8.0,92,78,62,32.29,20.48,6,2,0,0.01
2014-3-5,41.2,31.8,24.2,31.0,24.6,19.0,92,76,50,32.30,0.00,18,4,0,0.01
2014-3-6,48.8,36.6,24.8,38.0,28.9,20.0,93,75,51,30.34,30.32,12,4,0,0.00
2014-3-7,60.1,45.8,30.3,35.0,30.5,26.0,87,58,32,31.98,31.98,7,1,0,0.00
2014-3-8,57.4,46.8,36.7,42.0,34.8,31.0,88,65,38,32.32,22.70,16,3,0,0.00
2014-3-9,49.3,39.3,31.7,35.0,28.2,25.0,93,68,39,27.57,27.57,11,3,0,0.00
2014-3-10,63.5,51.4,40.1,40.0,35.0,26.0,74,56,38,32.34,22.80,11,4,0,0.00
2014-3-11,74.2,62.3,52.0,48.0,41.8,36.0,74,50,25,32.35,21.92,11,3,0,0.00
2014-3-12,68.4,44.1,25.9,54.0,37.0,16.0,94,78,36,30.34,30.28,27,8,0,0.76
2014-3-13,39.8,29.4,18.5,24.0,14.6,9.0,88,57,32,32.35,23.35,15,4,0,0.00
2014-3-14,62.4,50.3,36.9,39.0,28.8,20.0,61,45,31,32.32,22.70,21,8,0,0.00
2014-3-15,59.7,51.5,43.5,43.0,33.9,29.0,79,53,32,32.33,20.45,17,5,0,0.01
2014-3-16,47.4,35.5,30.2,37.0,25.9,12.0,86,69,45,32.30,22.42,20,10,0,0.00
2014-3-17,42.6,33.5,25.6,36.0,25.9,17.0,89,74,56,30.32,23.07,15,4,0,0.00
2014-3-18,56.2,44.4,30.6,46.0,35.7,26.0,90,72,57,32.48,23.02,14,4,0,0.00
2014-3-19,54.0,49.3,42.4,52.0,44.1,35.0,96,82,68,32.49,22.80,21,8,0,0.55
2014-3-20,53.4,45.0,35.5,35.0,30.0,26.0,76,57,42,23.48,21.74,19,6,0,0.00
2014-3-21,68.7,56.0,43.1,39.0,32.7,29.0,76,45,23,23.48,23.34,16,4,0,0.00
2014-3-22,59.2,49.7,42.5,39.0,34.4,29.0,81,57,32,32.32,22.42,21,7,0,0.00
2014-3-23,42.9,38.1,31.7,36.0,26.8,17.0,83,65,45,32.24,20.97,12,5,0,0.00
2014-3-24,42.0,34.4,25.9,26.0,18.4,11.0,85,55,32,32.33,21.76,8,3,0,0.00
2014-3-25,38.7,32.9,27.1,30.0,20.2,14.0,92,60,45,32.39,21.76,28,7,0,0.00
2014-3-26,43.1,30.7,22.7,24.0,14.1,10.0,85,53,28,32.39,20.30,11,3,0,0.00